TimeEST,TemperatureF,Dew PointF,Humidity,Sea Level PressureIn,VisibilityMPH,Wind Direction,Wind SpeedMPH,Gust SpeedMPH,PrecipitationIn,Events,Conditions,WindDirDegrees,DateUTC
12:15 AM,31.6,30.9,97,30.45,10.0,Calm,Calm,-,N/A,,Clear,0,2013-01-19 05:15:00
12:35 AM,30.9,30.0,96,30.44,10.0,Calm,Calm,-,N/A,,Clear,0,2013-01-19 05:35:00
12:55 AM,30.2,30.2,100,30.44,10.0,Calm,Calm,-,N/A,,Clear,0,2013-01-19 05:55:00
1:15 AM,30.2,30.0,99,30.43,10.0,Calm,Calm,-,N/A,,Clear,0,2013-01-19 06:15:00
1:35 AM,30.0,29.5,98,30.42,10.0,Calm,Calm,-,N/A,,Clear,0,2013-01-19 06:35:00
1:55 AM,31.1,30.2,96,30.42,10.0,Calm,Calm,-,N/A,,Clear,0,2013-01-19 06:55:00
2:15 AM,30.6,27.5,88,30.41,10.0,Calm,Calm,-,N/A,,Clear,0,2013-01-19 07:15:00
2:35 AM,30.0,27.9,92,30.41,10.0,Calm,Calm,-,N/A,,Clear,0,2013-01-19 07:35:00
2:55 AM,30.2,28.2,92,30.41,10.0,Calm,Calm,-,N/A,,Clear,0,2013-01-19 07:55:00
3:15 AM,30.4,28.2,92,30.41,10.0,Calm,Calm,-,N/A,,Clear,0,2013-01-19 08:15:00
3:35 AM,29.8,27.5,91,30.41,10.0,Calm,Calm,-,N/A,,Clear,0,2013-01-19 08:35:00
3:55 AM,28.8,26.8,92,30.40,10.0,Calm,Calm,-,N/A,,Clear,0,2013-01-19 08:55:00
4:15 AM,29.3,27.5,93,30.40,10.0,Calm,Calm,-,N/A,,Clear,0,2013-01-19 09:15:00
4:35 AM,29.1,27.7,94,30.40,10.0,Calm,Calm,-,N/A,,Clear,0,2013-01-19 09:35:00
4:55 AM,27.9,25.7,92,30.40,10.0,NW,3.5,-,N/A,,Clear,320,2013-01-19 09:55:00
5:15 AM,28.4,26.6,93,30.41,10.0,Calm,Calm,-,N/A,,Clear,0,2013-01-19 10:15:00
5:35 AM,27.7,25.7,92,30.42,10.0,NW,3.5,-,N/A,,Clear,320,2013-01-19 10:35:00
5:55 AM,27.3,25.7,94,30.42,10.0,Calm,Calm,-,N/A,,Clear,0,2013-01-19 10:55:00
6:15 AM,27.5,26.6,96,30.42,10.0,Calm,Calm,-,N/A,,Clear,0,2013-01-19 11:15:00
6:35 AM,27.7,26.2,94,30.42,10.0,Calm,Calm,-,N/A,,Clear,0,2013-01-19 11:35:00
6:55 AM,27.5,25.7,93,30.41,10.0,Calm,Calm,-,N/A,,Clear,0,2013-01-19 11:55:00
8:15 AM,28.0,26.4,94,30.42,10.0,Calm,Calm,-,N/A,,Clear,0,2013-01-19 13:15:00
8:55 AM,31.6,29.8,93,30.43,10.0,Calm,Calm,-,N/A,,Clear,0,2013-01-19 13:55:00
9:15 AM,34.5,31.6,89,30.43,10.0,Calm,Calm,-,N/A,,Clear,0,2013-01-19 14:15:00
9:35 AM,39.0,31.8,75,30.43,10.0,Calm,Calm,-,N/A,,Clear,0,2013-01-19 14:35:00
10:35 AM,44.4,30.6,58,30.44,10.0,Calm,Calm,-,N/A,,Clear,0,2013-01-19 15:35:00
10:55 AM,46.6,30.2,53,30.43,10.0,Calm,Calm,-,N/A,,Clear,0,2013-01-19 15:55:00
11:15 AM,49.1,30.2,48,30.42,10.0,Calm,Calm,-,N/A,,Clear,0,2013-01-19 16:15:00
11:35 AM,51.1,31.3,47,30.41,10.0,Calm,Calm,-,N/A,,Clear,0,2013-01-19 16:35:00
12:15 PM,54.0,32.0,43,30.38,10.0,Calm,Calm,-,N/A,,Clear,0,2013-01-19 17:15:00
12:35 PM,55.6,32.0,41,30.36,10.0,West,3.5,-,N/A,,Clear,270,2013-01-19 17:35:00
12:55 PM,56.7,31.1,38,30.34,10.0,SW,5.8,-,N/A,,Clear,220,2013-01-19 17:55:00
1:15 PM,57.6,31.5,37,30.33,10.0,WSW,5.8,-,N/A,,Clear,250,2013-01-19 18:15:00
1:35 PM,57.2,30.6,36,30.32,10.0,West,3.5,-,N/A,,Clear,260,2013-01-19 18:35:00
1:55 PM,57.4,30.6,36,30.30,10.0,WNW,6.9,-,N/A,,Clear,290,2013-01-19 18:55:00
2:15 PM,58.8,31.8,36,30.29,10.0,SW,6.9,-,N/A,,Clear,220,2013-01-19 19:15:00
2:35 PM,59.0,30.9,35,30.29,10.0,Calm,Calm,-,N/A,,Clear,0,2013-01-19 19:35:00
2:55 PM,59.0,30.9,35,30.28,10.0,Calm,Calm,-,N/A,,Clear,0,2013-01-19 19:55:00
3:15 PM,58.3,30.2,34,30.27,10.0,Calm,Calm,-,N/A,,Clear,0,2013-01-19 20:15:00
3:35 PM,59.5,31.1,34,30.27,10.0,Calm,Calm,-,N/A,,Clear,0,2013-01-19 20:35:00
3:55 PM,59.2,31.1,35,30.27,10.0,Calm,Calm,-,N/A,,Clear,0,2013-01-19 20:55:00
4:15 PM,59.5,30.6,33,30.26,10.0,SW,6.9,-,N/A,,Clear,230,2013-01-19 21:15:00
4:35 PM,58.6,29.8,34,30.26,10.0,West,3.5,-,N/A,,Clear,270,2013-01-19 21:35:00
4:55 PM,58.8,29.5,33,30.26,10.0,West,3.5,-,N/A,,Clear,260,2013-01-19 21:55:00
5:15 PM,58.1,29.1,33,30.26,10.0,SW,3.5,-,N/A,,Clear,230,2013-01-19 22:15:00
5:35 PM,56.5,29.3,35,30.26,10.0,WSW,3.5,-,N/A,,Clear,240,2013-01-19 22:35:00
5:55 PM,55.8,30.2,38,30.26,10.0,Calm,Calm,-,N/A,,Clear,0,2013-01-19 22:55:00
6:15 PM,50.5,32.5,50,30.25,10.0,Calm,Calm,-,N/A,,Clear,0,2013-01-19 23:15:00
6:35 PM,46.9,34.3,62,30.25,10.0,Calm,Calm,-,N/A,,Clear,0,2013-01-19 23:35:00
6:55 PM,46.6,34.5,63,30.26,10.0,Calm,Calm,-,N/A,,Clear,0,2013-01-19 23:55:00
7:15 PM,44.4,35.8,72,30.26,10.0,Calm,Calm,-,N/A,,Clear,0,2013-01-20 00:15:00
7:35 PM,41.9,36.0,79,30.26,10.0,Calm,Calm,-,N/A,,Clear,0,2013-01-20 00:35:00
7:55 PM,42.4,34.2,72,30.26,10.0,Calm,Calm,-,N/A,,Clear,0,2013-01-20 00:55:00
8:15 PM,41.0,36.3,83,30.27,10.0,Calm,Calm,-,N/A,,Clear,0,2013-01-20 01:15:00
8:35 PM,41.2,36.9,85,30.27,10.0,Calm,Calm,-,N/A,,Clear,0,2013-01-20 01:35:00
8:55 PM,40.8,35.6,82,30.27,10.0,Calm,Calm,-,N/A,,Clear,0,2013-01-20 01:55:00
9:15 PM,39.6,35.2,85,30.27,10.0,Calm,Calm,-,N/A,,Clear,0,2013-01-20 02:15:00
9:35 PM,39.6,35.6,86,30.27,10.0,Calm,Calm,-,N/A,,Clear,0,2013-01-20 02:35:00
9:55 PM,38.7,35.1,87,30.26,10.0,Calm,Calm,-,N/A,,Clear,0,2013-01-20 02:55:00
10:15 PM,37.6,35.2,91,30.26,10.0,Calm,Calm,-,N/A,,Clear,0,2013-01-20 03:15:00
10:35 PM,37.8,35.1,90,30.26,10.0,Calm,Calm,-,N/A,,Clear,0,2013-01-20 03:35:00
10:55 PM,38.3,35.8,91,30.26,10.0,Calm,Calm,-,N/A,,Clear,0,2013-01-20 03:55:00
11:15 PM,37.8,34.9,89,30.26,10.0,Calm,Calm,-,N/A,,Clear,0,2013-01-20 04:15:00
11:35 PM,36.5,34.2,91,30.25,10.0,Calm,Calm,-,N/A,,Clear,0,2013-01-20 04:35:00
11:55 PM,35.6,34.3,95,30.24,10.0,Calm,Calm,-,N/A,,Clear,0,2013-01-20 04:55:00